[[{"header":{"parameterUnit":"m.s-1","parameterCategory":1,"la1":30.2991,"la2":30.254,"lo1":-89.0895,"lo2":-89.0444,"dy":0.0017,"dx":0.0017,"nx":28,"ny":28,"refTime":"2024-10-19T21:00:00:Z","depth":0,"parameterNumber":2,"parameterNumberName":"U-component_of_WINDS"},"data":[0,0,0,0,0,0,0,0,0,0,0,0,0,0,0,0,0,0,0,0,0,0,0,0,0,0,0,0,0,0,0,0,0,0,0,0,0,0,0,0,0,0,0,0,0,0,0,0,0,0,0,0,0,0,0,0,0,0,-1.6469,-1.6469,0,-1.6512,-1.6513,-1.6513,-1.6535,-1.6535,-1.6535,-1.6535,-1.6579,-1.6581,-1.6582,0,0,0,0,0,0,0,0,0,0,0,0,0,-1.6405,-1.6406,-1.6469,-1.6469,-1.647,-1.6512,-1.6513,-1.6513,-1.6535,-1.6535,-1.6535,-1.6535,-1.6579,-1.658,-1.6582,0,0,0,0,0,0,0,0,0,0,0,0,0,-1.6439,-1.6406,-1.6469,-1.6486,-1.6488,-1.6512,-1.6513,-1.6514,-1.6535,-1.6535,-1.6535,-1.6535,-1.6579,-1.658,-1.6582,-1.6592,0,0,-1.6587,-1.6588,0,0,0,0,0,0,0,0,-1.6437,-1.6441,-1.6483,-1.6485,-1.6487,-1.6518,-1.6506,-1.654,-1.6535,-1.6517,-1.6535,-1.6535,-1.6559,-1.6562,-1.6571,-1.6594,-1.6596,-1.6587,-1.6589,-1.6589,-1.659,0,0,0,0,0,0,0,-1.6435,-1.644,-1.6486,-1.6483,-1.6486,-1.6492,-1.6496,-1.6513,-1.6538,-1.6519,-1.6521,-1.6525,-1.656,-1.6569,-1.6572,-1.6597,-1.6587,-1.6589,-1.659,-1.6591,-1.6632,-1.6632,0,0,0,0,0,0,-1.643,-1.6437,-1.6485,-1.6487,-1.6462,-1.6493,-1.6498,-1.6508,-1.6537,-1.6542,-1.6525,-1.6526,-1.6566,-1.657,-1.6573,-1.6588,-1.6589,-1.6591,-1.6592,-1.6632,-1.6632,-1.6632,0,0,0,0,0,0,-1.6428,-1.6434,-1.6483,-1.6463,-1.647,-1.6494,-1.6505,-1.6509,-1.6518,-1.6542,-1.6547,-1.653,-1.6566,-1.6571,-1.6588,-1.659,-1.6592,-1.6593,-1.6632,-1.6632,-1.6632,-1.6616,0,0,0,0,0,0,-1.6426,-1.6433,-1.6437,-1.6463,-1.6471,-1.6496,-1.6505,-1.651,-1.6521,-1.6522,-1.6547,-1.6552,-1.6566,-1.6585,-1.6589,-1.6592,-1.6595,-1.6632,-1.6632,-1.6632,-1.6616,-1.6616,-1.6615,0,0,0,0,0,-1.6424,-1.643,-1.6437,-1.6442,-1.6476,-1.6496,-1.6501,-1.6518,-1.6521,-1.6525,-1.6541,-1.6551,-1.6589,-1.6586,-1.6592,-1.6595,-1.6632,-1.6632,-1.6632,-1.6617,-1.6616,-1.6615,0,0,0,0,0,0,-1.6403,-1.6434,-1.6442,-1.6457,-1.6474,-1.65,-1.6506,-1.6516,-1.6532,-1.6533,-1.6553,-1.6559,-1.6574,-1.6586,-1.6583,-1.6607,-1.6611,-1.6612,-1.6598,-1.6597,-1.6596,-1.6593,-1.6596,0,0,0,0,0,-1.6401,-1.6415,-1.6441,-1.6451,-1.646,-1.6481,-1.6491,-1.6502,-1.6521,-1.6528,-1.6545,-1.6563,-1.6579,-1.6589,-1.6604,-1.6619,-1.6625,-1.6623,-1.6623,-1.6622,-1.6622,-1.6632,-1.6632,-1.6633,-1.6633,-1.6633,0,0,-1.6395,-1.6414,-1.6421,-1.6448,-1.6462,-1.6476,-1.6487,-1.6501,-1.6512,-1.653,-1.6547,-1.656,-1.6581,-1.6597,-1.6605,-1.6608,-1.6624,-1.6622,-1.6621,-1.6622,-1.6632,-1.6632,-1.6632,-1.6633,-1.6633,-1.6633,0,0,-1.6392,-1.6407,-1.6419,-1.6433,-1.6455,-1.647,-1.6472,-1.6497,-1.6507,-1.6524,-1.6539,-1.6552,-1.6579,-1.6593,-1.6604,-1.6608,-1.6618,-1.6613,-1.6608,-1.6617,-1.6617,-1.6617,-1.6619,-1.6619,-1.6613,-1.6613,-1.6613,0,-1.6382,-1.6404,-1.6423,-1.6437,-1.6448,-1.6466,-1.6477,-1.649,-1.6517,-1.6524,-1.6527,-1.6562,-1.6577,-1.6597,-1.6598,-1.6606,-1.661,-1.661,-1.6615,-1.6615,-1.6616,-1.6618,-1.6618,-1.6613,-1.6613,-1.6613,-1.6613,0,-1.6391,-1.6406,-1.6413,-1.6438,-1.645,-1.6463,-1.6483,-1.6494,-1.6505,-1.6519,-1.6537,-1.6556,-1.6577,-1.6582,-1.6593,-1.6604,-1.6605,-1.6611,-1.6616,-1.6615,-1.6617,-1.6618,-1.6611,-1.6612,-1.6612,-1.6612,0,0,-1.6376,-1.6412,-1.6414,-1.6426,-1.6453,-1.6465,-1.6478,-1.6499,-1.6507,-1.6525,-1.6537,-1.656,-1.6567,-1.6579,-1.6591,-1.6599,-1.6602,-1.6605,-1.6606,-1.6604,-1.6616,-1.6611,-1.6611,-1.6609,-1.6609,-1.6609,-1.6614,0,-1.6377,-1.6402,-1.642,-1.6438,-1.6453,-1.647,-1.6482,-1.65,-1.6514,-1.6528,-1.6544,-1.656,-1.6567,-1.6575,-1.6583,-1.66,-1.6604,-1.66,-1.6621,-1.6621,-1.6615,-1.6612,-1.6607,-1.6611,-1.6615,-1.6615,-1.6615,0,-1.6382,-1.6399,-1.6419,-1.6445,-1.6451,-1.6462,-1.6482,-1.6496,-1.6516,-1.6526,-1.6541,-1.6554,-1.6569,-1.6573,-1.6595,-1.6592,-1.6601,-1.6611,-1.6612,-1.6614,-1.6618,-1.6615,-1.6612,-1.6613,-1.6617,-1.6617,-1.6617,0,-1.6369,-1.6398,-1.6414,-1.6423,-1.6453,-1.646,-1.6473,-1.6494,-1.6505,-1.6523,-1.6531,-1.6551,-1.6561,-1.6577,-1.6595,-1.6596,-1.6615,-1.6621,-1.6624,-1.6624,-1.6627,-1.6627,-1.6626,-1.6633,-1.6633,-1.6633,-1.6633,0,-1.6368,-1.638,-1.6408,-1.6418,-1.6432,-1.6452,-1.6465,-1.648,-1.6498,-1.6511,-1.6528,-1.654,-1.6563,-1.6578,-1.6592,-1.6609,-1.6614,-1.6622,-1.6626,-1.6621,-1.662,-1.6627,-1.6628,-1.6634,-1.6634,-1.6634,-1.6633,0,-1.6356,-1.6376,-1.6394,-1.6422,-1.6429,-1.6438,-1.6461,-1.6471,-1.6487,-1.6503,-1.6508,-1.6532,-1.6551,-1.6571,-1.6596,-1.6606,-1.6622,-1.6627,-1.6615,-1.6617,-1.662,-1.6619,-1.6624,-1.6626,-1.6631,-1.6631,-1.6631,0,-1.6354,-1.6364,-1.6392,-1.6402,-1.6415,-1.6431,-1.6443,-1.6463,-1.6475,-1.65,-1.6507,-1.6527,-1.6544,-1.6574,-1.6594,-1.6613,-1.6619,-1.662,-1.6622,-1.6617,-1.662,-1.6619,-1.662,-1.6618,-1.6618,-1.6618,-1.6618,0,-1.6349,-1.6359,-1.6375,-1.6396,-1.641,-1.6427,-1.6444,-1.6451,-1.6476,-1.6488,-1.6508,-1.6521,-1.6547,-1.6567,-1.6589,-1.6603,-1.6615,-1.6617,-1.6619,-1.6614,-1.6607,-1.6611,-1.6613,-1.6617,-1.6617,-1.6617,-1.6617,-1.6617,-1.6343,-1.6352,-1.6374,-1.6392,-1.6408,-1.6424,-1.6435,-1.6452,-1.6469,-1.6492,-1.6503,-1.6522,-1.6544,-1.6575,-1.6589,-1.6605,-1.6608,-1.6611,-1.6611,-1.6612,-1.6611,-1.6604,-1.6609,-1.6609,-1.6609,-1.6609,-1.6609,0,-1.6339,-1.6354,-1.637,-1.6395,-1.6409,-1.6419,-1.6439,-1.6451,-1.6468,-1.6487,-1.6504,-1.6526,-1.6546,-1.6568,-1.6589,-1.6597,-1.6603,-1.6602,-1.6602,-1.6605,-1.6606,-1.6603,-1.6597,-1.6597,-1.6597,-1.6597,-1.6597,-1.6597,-1.6339,-1.6355,-1.6367,-1.6392,-1.6407,-1.6427,-1.6437,-1.6453,-1.6468,-1.6493,-1.6509,-1.6523,-1.6544,-1.6567,-1.6585,-1.6591,-1.6598,-1.6596,-1.6603,-1.6604,-1.6605,-1.6606,-1.6602,-1.6597,-1.6597,-1.6601,-1.6601,-1.6601]},{"header":{"parameterUnit":"m.s-1","parameterCategory":1,"la1":30.2991,"la2":30.254,"lo1":-89.0895,"lo2":-89.0444,"dy":0.0017,"dx":0.0017,"nx":28,"ny":28,"refTime":"2024-10-19T21:00:00:Z","depth":0,"parameterNumber":3,"parameterNumberName":"V-component_of_WINDS"},"data":[0,0,0,0,0,0,0,0,0,0,0,0,0,0,0,0,0,0,0,0,0,0,0,0,0,0,0,0,0,0,0,0,0,0,0,0,0,0,0,0,0,0,0,0,0,0,0,0,0,0,0,0,0,0,0,0,0,0,-2.2452,-2.2453,0,-2.2557,-2.2558,-2.256,-2.2612,-2.2612,-2.2612,-2.2612,-2.2719,-2.2721,-2.2724,0,0,0,0,0,0,0,0,0,0,0,0,0,-2.2295,-2.2297,-2.2451,-2.2453,-2.2454,-2.2557,-2.2558,-2.256,-2.2612,-2.2612,-2.2612,-2.2612,-2.2718,-2.2721,-2.2724,0,0,0,0,0,0,0,0,0,0,0,0,0,-2.2378,-2.2298,-2.2451,-2.2492,-2.2497,-2.2557,-2.2559,-2.256,-2.2612,-2.2612,-2.2612,-2.2612,-2.2717,-2.2721,-2.2725,-2.2751,0,0,-2.2738,-2.274,0,0,0,0,0,0,0,0,-2.2373,-2.2384,-2.2485,-2.249,-2.2495,-2.2571,-2.2543,-2.2624,-2.2612,-2.2568,-2.2612,-2.2612,-2.267,-2.2678,-2.2697,-2.2756,-2.2761,-2.2738,-2.2741,-2.2743,-2.2744,0,0,0,0,0,0,0,-2.2367,-2.2379,-2.2493,-2.2486,-2.2493,-2.2506,-2.2517,-2.2558,-2.2617,-2.2572,-2.2576,-2.2588,-2.2672,-2.2693,-2.27,-2.2762,-2.2738,-2.2742,-2.2745,-2.2746,-2.2851,-2.2851,0,0,0,0,0,0,-2.2355,-2.2374,-2.249,-2.2496,-2.2433,-2.2508,-2.2522,-2.2547,-2.2617,-2.2628,-2.2588,-2.259,-2.2686,-2.2695,-2.2704,-2.2741,-2.2743,-2.2747,-2.2749,-2.2851,-2.2851,-2.2851,0,0,0,0,0,0,-2.2351,-2.2365,-2.2486,-2.2437,-2.2453,-2.2511,-2.2539,-2.2549,-2.257,-2.2629,-2.264,-2.2598,-2.2686,-2.2698,-2.274,-2.2745,-2.2749,-2.2753,-2.285,-2.2851,-2.2851,-2.2814,0,0,0,0,0,0,-2.2347,-2.2363,-2.2373,-2.2436,-2.2455,-2.2519,-2.2539,-2.2551,-2.2577,-2.2581,-2.2642,-2.2652,-2.2687,-2.2733,-2.2744,-2.2751,-2.2756,-2.285,-2.285,-2.2851,-2.2815,-2.2813,-2.2811,0,0,0,0,0,-2.2341,-2.2358,-2.2374,-2.2387,-2.2469,-2.2519,-2.253,-2.2571,-2.2577,-2.2589,-2.2627,-2.265,-2.2743,-2.2737,-2.275,-2.2758,-2.285,-2.285,-2.2851,-2.2816,-2.2813,-2.2811,0,0,0,0,0,0,-2.2293,-2.2367,-2.2385,-2.2423,-2.2465,-2.2528,-2.2543,-2.2567,-2.2607,-2.2608,-2.2657,-2.267,-2.2708,-2.2737,-2.2729,-2.2789,-2.2799,-2.2802,-2.2768,-2.2766,-2.2764,-2.2756,-2.2759,0,0,0,0,0,-2.2287,-2.2321,-2.2384,-2.2412,-2.2432,-2.2484,-2.2507,-2.2535,-2.258,-2.2597,-2.2639,-2.2681,-2.2721,-2.2745,-2.2784,-2.282,-2.2834,-2.2832,-2.283,-2.2829,-2.283,-2.2853,-2.2853,-2.2853,-2.2853,-2.2853,0,0,-2.2274,-2.2319,-2.2338,-2.2403,-2.2439,-2.2473,-2.2498,-2.2533,-2.256,-2.2602,-2.2645,-2.2677,-2.2728,-2.2767,-2.2786,-2.2793,-2.2834,-2.2829,-2.2827,-2.283,-2.2854,-2.2854,-2.2854,-2.2853,-2.2853,-2.2853,0,0,-2.227,-2.2307,-2.2335,-2.237,-2.2424,-2.2459,-2.2466,-2.2526,-2.255,-2.2593,-2.2626,-2.2659,-2.2725,-2.276,-2.2787,-2.2798,-2.2821,-2.281,-2.28,-2.2822,-2.2822,-2.2822,-2.2827,-2.2828,-2.2812,-2.2812,-2.2812,0,-2.2247,-2.2301,-2.2345,-2.238,-2.2408,-2.245,-2.2479,-2.2511,-2.2575,-2.2594,-2.26,-2.2686,-2.2723,-2.2772,-2.2775,-2.2795,-2.2804,-2.2803,-2.2818,-2.2819,-2.282,-2.2825,-2.2827,-2.281,-2.281,-2.281,-2.281,0,-2.2271,-2.2308,-2.2324,-2.2386,-2.2416,-2.2447,-2.2497,-2.2523,-2.2549,-2.2583,-2.2628,-2.2674,-2.2724,-2.2738,-2.2763,-2.2791,-2.2794,-2.2809,-2.282,-2.2818,-2.2823,-2.2826,-2.2807,-2.2808,-2.2809,-2.2809,0,0,-2.2237,-2.2325,-2.233,-2.236,-2.2424,-2.2453,-2.2487,-2.2537,-2.2558,-2.2602,-2.2632,-2.2688,-2.2703,-2.2733,-2.2763,-2.2782,-2.279,-2.2795,-2.2797,-2.2793,-2.2825,-2.2813,-2.2815,-2.2806,-2.2807,-2.2807,-2.2821,0,-2.2241,-2.2304,-2.2347,-2.2393,-2.2428,-2.247,-2.25,-2.2543,-2.2576,-2.2612,-2.2649,-2.2689,-2.2705,-2.2724,-2.2745,-2.2784,-2.2797,-2.2784,-2.2835,-2.2836,-2.2821,-2.2818,-2.2805,-2.2816,-2.2824,-2.2824,-2.2824,0,-2.2254,-2.2297,-2.2348,-2.241,-2.2426,-2.2452,-2.2503,-2.2536,-2.2586,-2.2609,-2.2644,-2.2676,-2.2714,-2.2723,-2.2777,-2.2767,-2.2791,-2.2814,-2.2816,-2.2822,-2.2829,-2.2824,-2.282,-2.2821,-2.2828,-2.2828,-2.2828,0,-2.2225,-2.2296,-2.2335,-2.2359,-2.2433,-2.245,-2.2481,-2.2532,-2.256,-2.2604,-2.2623,-2.2671,-2.2697,-2.2733,-2.2777,-2.2779,-2.2828,-2.2839,-2.2849,-2.2847,-2.2856,-2.2855,-2.2856,-2.2871,-2.2871,-2.2871,-2.2871,0,-2.2225,-2.2254,-2.2324,-2.2348,-2.2382,-2.2431,-2.2464,-2.2499,-2.2544,-2.2576,-2.2615,-2.2645,-2.2701,-2.2738,-2.2772,-2.2813,-2.2824,-2.2845,-2.2853,-2.2841,-2.2838,-2.2857,-2.2857,-2.2872,-2.2872,-2.2872,-2.2872,0,-2.2197,-2.2245,-2.2291,-2.2358,-2.2375,-2.2398,-2.2455,-2.248,-2.2517,-2.2558,-2.257,-2.2628,-2.2674,-2.2721,-2.2783,-2.2806,-2.2846,-2.2858,-2.2829,-2.2834,-2.284,-2.2839,-2.2853,-2.2857,-2.2869,-2.2869,-2.2869,0,-2.2194,-2.2217,-2.2287,-2.2312,-2.2343,-2.2382,-2.2412,-2.2461,-2.2491,-2.2551,-2.2569,-2.2618,-2.266,-2.2731,-2.2778,-2.2826,-2.284,-2.2842,-2.2847,-2.2835,-2.2841,-2.2839,-2.2842,-2.2839,-2.2839,-2.2839,-2.2838,0,-2.2183,-2.2206,-2.2247,-2.2297,-2.2331,-2.2373,-2.2416,-2.2434,-2.2493,-2.2524,-2.2571,-2.2604,-2.2668,-2.2716,-2.277,-2.2803,-2.2831,-2.2837,-2.2841,-2.2829,-2.2811,-2.2821,-2.2823,-2.2836,-2.2836,-2.2836,-2.2836,-2.2836,-2.2168,-2.2191,-2.2245,-2.229,-2.2328,-2.2368,-2.2396,-2.2437,-2.2478,-2.2534,-2.2561,-2.2609,-2.2661,-2.2737,-2.2769,-2.2808,-2.2816,-2.2822,-2.2824,-2.2825,-2.2822,-2.2805,-2.2818,-2.2818,-2.2818,-2.2818,-2.2818,0,-2.2159,-2.2196,-2.2237,-2.2297,-2.2333,-2.2357,-2.2407,-2.2435,-2.2477,-2.2523,-2.2564,-2.262,-2.2667,-2.272,-2.2771,-2.2792,-2.2806,-2.2804,-2.2802,-2.281,-2.2812,-2.2803,-2.2791,-2.2791,-2.2791,-2.2791,-2.2791,-2.2791,-2.2159,-2.2201,-2.223,-2.2292,-2.2329,-2.2377,-2.2403,-2.2441,-2.2478,-2.2539,-2.2579,-2.2613,-2.2663,-2.2718,-2.2763,-2.2778,-2.2795,-2.2789,-2.2807,-2.2807,-2.2809,-2.2811,-2.2803,-2.2792,-2.2792,-2.2802,-2.2802,-2.2802]}]]